Location: Cypress Hills Dark-Sky Preserve - CHICO
(49.6176°N, 110.2634°W)
Time: 23:11:13
(UTC-07:00)

Amateur Radio Satellites - All Passes

Search period start: 28 November 2014 22:41
Search period end: 29 November 2014 22:41
Location: Cypress Hills Dark-Sky Preserve - CHICO, 49.6176°N, 110.2634°W

Satellite Date Start Highest point End Downlink Frequencies (MHz)
Time Altitude Azimuth
DX 1 28 Nov 22:42:15 22:44:21 13° 272° (W) 22:46:27 434.975-435.025
UNISAT 6 28 Nov 22:43:20 22:47:33 40° 98° (E) 22:51:51 437.425
UWE-3 28 Nov 22:44:46 22:47:46 19° 269° (W) 22:50:47 435.000/436.395/437.385
PCSat 28 Nov 22:46:57 22:50:03 15° 343° (NNW) 22:53:09 145.827
AUBIESAT-1 28 Nov 22:50:24 22:53:00 15° 48° (NE) 22:55:42 437.475
CUBEBUG 2 28 Nov 22:52:06 22:54:28 15° 271° (W) 22:56:50 437.445
POLYITAN 1 28 Nov 22:53:51 22:57:46 35° 97° (E) 23:01:39 437.675
BEESAT 28 Nov 22:54:32 22:54:43 10° 50° (NE) 22:54:54 436.000
QB50P2 28 Nov 22:54:33 22:58:29 36° 97° (E) 23:02:23 145.880/145.840
M-CUBED/EXP-1 PRIME 28 Nov 22:57:23 23:00:25 18° 51° (NE) 23:03:36 437.505
DUCHIFAT 1 28 Nov 22:58:24 23:02:22 38° 98° (E) 23:06:18 145.980
BEESAT 3 28 Nov 23:05:25 23:07:09 12° 345° (NNW) 23:08:54 437.485
TISAT 1 28 Nov 23:07:15 23:11:22 50° 70° (ENE) 23:15:30 437.305
ANTELSAT 28 Nov 23:12:22 23:16:51 77° 103° (ESE) 23:21:24 437.575/2403.000
ZACube-1 28 Nov 23:14:21 23:15:53 12° 273° (W) 23:17:24 437.345
NANOSAT C BR1 28 Nov 23:18:15 23:22:28 62° 102° (ESE) 23:26:38 145.865
BUGSAT 1 28 Nov 23:22:21 23:26:23 56° 101° (E) 23:30:22 437.445
MaSat-1 28 Nov 23:22:45 23:25:00 49° 56° (NE) 23:27:18 437.345
BEESAT 2 28 Nov 23:24:10 23:25:35 11° 348° (NNW) 23:27:00 435.950
VELOX 1 28 Nov 23:25:49 23:28:21 15° 271° (W) 23:30:54 145.980
SPROUT 28 Nov 23:27:05 23:31:22 70° 73° (ENE) 23:35:40 437.525
QB50P1 28 Nov 23:28:37 23:32:52 79° 104° (ESE) 23:37:05 145.935-145.965
ESTCUBE 1 28 Nov 23:34:18 23:38:13 28° 266° (W) 23:42:10 437.505/2401.250
50 SAT 28 Nov 23:35:21 23:37:04 12° 272° (W) 23:38:47 437.505
CUSAT 1 28 Nov 23:37:58 23:42:38 86° 259° (W) 23:48:58 437.405
ITUPSAT 1 28 Nov 23:47:46 23:51:46 27° 62° (ENE) 23:55:46 437.325
ISS 28 Nov 23:48:22 23:51:37 62° 156° (SSE) 23:54:53 145.825
CUBEBUG 1 28 Nov 23:53:59 23:57:09 19° 269° (W) 00:00:20 437.445
POPSAT HIP 1 28 Nov 23:53:59 23:58:09 59° 288° (WNW) 00:02:18 437.405
SWISSCUBE 28 Nov 23:57:01 00:01:19 34° 65° (ENE) 00:05:38 437.505
TIGRISAT 29 Nov 00:04:42 00:08:46 36° 293° (WNW) 00:12:54 435.000
RS-15 29 Nov 00:08:58 00:20:11 83° 49° (NE) 00:31:52 29.354- 29.394
AIST 2 29 Nov 00:13:46 00:15:03 11° 353° (N) 00:16:20 435.215
DANDE 29 Nov 00:18:37 00:22:59 47° 262° (W) 00:28:48 436.750
UNISAT 6 29 Nov 00:20:29 00:24:13 27° 296° (WNW) 00:28:01 437.425
AUBIESAT-1 29 Nov 00:22:57 00:27:14 85° 69° (ENE) 00:31:56 437.475
BEESAT 29 Nov 00:26:52 00:31:33 56° 70° (ENE) 00:36:16 436.000
POLYITAN 1 29 Nov 00:30:02 00:33:38 27° 295° (WNW) 00:37:13 437.675
M-CUBED/EXP-1 PRIME 29 Nov 00:30:36 00:34:52 76° 251° (WSW) 00:39:33 437.505
QB50P2 29 Nov 00:30:43 00:34:18 27° 296° (WNW) 00:37:52 145.880/145.840
PCSat 29 Nov 00:33:22 00:35:52 13° 9° (N) 00:38:21 145.827
DUCHIFAT 1 29 Nov 00:34:38 00:38:06 25° 296° (WNW) 00:41:34 145.980
YUBILEINY 29 Nov 00:35:45 00:40:54 17° 72° (ENE) 00:46:01 435.215
TISAT 1 29 Nov 00:44:26 00:47:30 19° 268° (W) 00:50:36 437.305
BEESAT 3 29 Nov 00:46:07 00:47:13 11° 9° (N) 00:48:20 437.485
ANTELSAT 29 Nov 00:50:26 00:53:09 16° 302° (WNW) 00:55:53 437.575/2403.000
STARS 29 Nov 00:51:19 00:54:12 18° 59° (ENE) 00:57:06 437.465
NANOSAT C BR1 29 Nov 00:55:09 00:57:56 17° 300° (WNW) 01:00:43 145.865
BUGSAT 1 29 Nov 00:58:46 01:01:31 18° 300° (WNW) 01:04:15 437.445
BEESAT 2 29 Nov 01:04:11 01:05:43 12° 13° (NNE) 01:07:16 435.950
SPROUT 29 Nov 01:05:34 01:07:57 14° 271° (W) 01:10:21 437.525
QB50P1 29 Nov 01:05:56 01:08:13 14° 302° (WNW) 01:10:30 145.935-145.965
Oscar 19 29 Nov 01:20:48 01:25:28 33° 95° (E) 01:30:06 437.125/150
CUSAT 1 29 Nov 01:23:04 01:25:31 14° 272° (W) 01:28:14 437.405
ITUPSAT 1 29 Nov 01:24:47 01:29:26 48° 261° (W) 01:34:08 437.325
ISS 29 Nov 01:25:03 01:28:19 59° 355° (N) 01:31:35 145.825
SWISSCUBE 29 Nov 01:34:43 01:39:09 36° 263° (W) 01:43:36 437.505
Gurwin Techsat 1B 29 Nov 01:35:37 01:37:24 12° 84° (E) 01:39:11 435.225
KKS-1 29 Nov 01:37:09 01:41:31 60° 71° (ENE) 01:45:55 437.445
AIST 2 29 Nov 01:53:18 01:55:32 14° 18° (NNE) 01:57:45 435.215
SO-50 29 Nov 01:59:40 02:00:14 10° 107° (ESE) 02:00:47 436.795
AUBIESAT-1 29 Nov 02:00:54 02:02:58 13° 269° (W) 02:05:06 437.475
BEESAT 29 Nov 02:06:06 02:09:45 21° 268° (W) 02:13:26 436.000
PCSat 29 Nov 02:16:40 02:21:14 26° 35° (NE) 02:25:47 145.827
ITAMSAT 1 29 Nov 02:21:12 02:26:10 44° 99° (E) 02:31:05 435.822/435.867
RS-15 29 Nov 02:21:58 02:31:33 35° 253° (WSW) 02:41:30 29.354- 29.394
BEESAT 3 29 Nov 02:23:29 02:26:55 24° 33° (NNE) 02:30:20 437.485
STARS 29 Nov 02:25:52 02:30:14 67° 257° (WSW) 02:34:38 437.465
YUBILEINY 29 Nov 02:27:21 02:36:05 72° 94° (E) 02:44:48 435.215
BEESAT 2 29 Nov 02:41:41 02:45:22 28° 36° (NE) 02:49:02 435.950
HORYU 2 29 Nov 02:43:45 02:46:57 19° 91° (E) 02:50:08 437.375
Oscar 19 29 Nov 03:00:04 03:04:53 41° 294° (WNW) 03:09:42 437.125/150
ISS 29 Nov 03:01:50 03:05:08 80° 15° (NNE) 03:08:26 145.825
MOZHAYETS 4 29 Nov 03:07:04 03:10:23 20° 60° (ENE) 03:13:43
AO-7 29 Nov 03:07:42 03:13:15 19° 86° (E) 03:18:46 29.400- 29.500
Gurwin Techsat 1B 29 Nov 03:12:58 03:18:19 74° 103° (ESE) 03:23:37 435.225
KKS-1 29 Nov 03:15:35 03:18:34 18° 270° (W) 03:21:35 437.445
AIST 2 29 Nov 03:31:17 03:35:21 37° 40° (NE) 03:39:21 435.215
SO-50 29 Nov 03:35:19 03:39:50 68° 126° (SE) 03:44:31 436.795
PCSat 29 Nov 03:59:49 04:05:17 82° 237° (WSW) 04:10:42 145.827
ITAMSAT 1 29 Nov 04:01:00 04:05:32 31° 298° (WNW) 04:10:02 435.822/435.867
BEESAT 3 29 Nov 04:01:23 04:05:35 72° 234° (SW) 04:09:44 437.485
HORYU 2 29 Nov 04:19:34 04:23:59 57° 289° (WNW) 04:28:24 437.375
BEESAT 2 29 Nov 04:19:47 04:23:55 54° 236° (WSW) 04:28:00 435.950
YUBILEINY 29 Nov 04:26:04 04:33:43 32° 298° (WNW) 04:41:23 435.215
O/OREOS (USA 219) 29 Nov 04:37:57 04:40:45 17° 100° (E) 04:43:33 437.305
ISS 29 Nov 04:38:40 04:41:35 29° 214° (SW) 04:44:29 145.825
PRISM 29 Nov 04:39:55 04:43:36 30° 65° (ENE) 04:47:19 437.425
MOZHAYETS 4 29 Nov 04:42:38 04:47:11 62° 259° (W) 04:51:49
Gurwin Techsat 1B 29 Nov 04:53:53 04:57:46 21° 303° (WNW) 05:01:38 435.225
CUBESAT XI-V 29 Nov 04:58:04 05:01:36 21° 61° (ENE) 05:05:08 437.345
AO-7 29 Nov 04:59:00 05:07:26 77° 108° (ESE) 05:15:48 29.400- 29.500
AIST 1 29 Nov 05:06:32 05:09:06 15° 63° (ENE) 05:11:39
JAS-2 29 Nov 05:08:32 05:15:15 44° 95° (E) 05:21:11 435.910
AIST 2 29 Nov 05:10:01 05:14:00 37° 240° (WSW) 05:17:56 435.215
STRAND 1 29 Nov 05:13:30 05:17:58 31° 62° (ENE) 05:22:26 437.568
SO-50 29 Nov 05:16:48 05:20:49 28° 328° (NNW) 05:24:56 436.795
Cubesat XI-IV 29 Nov 05:28:20 05:31:35 16° 88° (E) 05:34:48 437.490
PCSat 29 Nov 05:44:56 05:47:51 15° 256° (WSW) 05:50:46 145.827
CUTE-I 29 Nov 06:07:41 06:12:28 33° 95° (E) 06:17:13 437.470
O/OREOS (USA 219) 29 Nov 06:15:11 06:19:38 67° 299° (WNW) 06:24:07 437.305
PRISM 29 Nov 06:15:17 06:19:06 33° 263° (W) 06:22:58 437.425
GONETS M04 29 Nov 06:25:45 06:31:28 20° 73° (ENE) 06:37:12
CUBESAT XI-V 29 Nov 06:34:00 06:38:40 59° 259° (W) 06:43:21 437.345
AIST 1 29 Nov 06:42:56 06:47:19 70° 263° (W) 06:51:38
STRAND 1 29 Nov 06:52:06 06:57:01 44° 261° (W) 07:01:57 437.568
AO-7 29 Nov 06:52:25 06:59:35 33° 310° (NW) 07:06:44 29.400- 29.500
JAS-2 29 Nov 06:53:38 07:00:20 44° 298° (WNW) 07:06:17 435.910
SO-50 29 Nov 07:00:23 07:02:54 14° 352° (N) 07:05:28 436.795
Cubesat XI-IV 29 Nov 07:07:01 07:12:22 84° 287° (WNW) 07:17:41 437.490
HO-68 29 Nov 07:27:56 07:28:58 10° 80° (E) 07:30:00 435.675
CUTE-I 29 Nov 07:47:39 07:52:39 42° 294° (WNW) 07:57:37 437.470
O/OREOS (USA 219) 29 Nov 07:57:47 07:59:57 13° 321° (NW) 08:02:08 437.305
BRITE-PL 29 Nov 08:13:44 08:15:44 13° 88° (E) 08:17:44 437.365/2234.400
GONETS M04 29 Nov 08:18:01 08:26:49 79° 96° (E) 08:35:42
COMPASS 1 29 Nov 08:24:28 08:26:38 14° 88° (E) 08:28:48 437.405
CANX-2 29 Nov 08:29:32 08:32:53 22° 92° (E) 08:36:15 2200.000
JAS-2 29 Nov 08:40:56 08:43:28 12° 321° (NW) 08:45:55 435.910
ANTELSAT 29 Nov 08:41:32 08:44:07 16° 58° (ENE) 08:46:43 437.575/2403.000
SO-50 29 Nov 08:42:19 08:45:21 16° 17° (NNE) 08:48:26 436.795
NANOSAT C BR1 29 Nov 08:42:50 08:44:24 12° 56° (NE) 08:45:59 145.865
BUGSAT 1 29 Nov 08:45:21 08:46:09 11° 55° (NE) 08:46:56 437.445
AO-7 29 Nov 08:47:05 08:49:51 12° 335° (NNW) 08:52:37 29.400- 29.500
Cubesat XI-IV 29 Nov 08:48:29 08:51:43 17° 307° (NW) 08:54:56 437.490
QB50P1 29 Nov 08:52:25 08:54:43 15° 58° (ENE) 08:57:02 145.935-145.965
CUTE 1.7 + AOD 2 29 Nov 09:03:12 09:07:18 42° 98° (E) 09:11:23 437.475
GOMX 1 29 Nov 09:03:21 09:07:03 30° 96° (E) 09:10:49 467.674
HO-68 29 Nov 09:11:18 09:18:22 55° 101° (E) 09:25:21 435.675
POPSAT HIP 1 29 Nov 09:16:29 09:19:50 23° 63° (ENE) 09:23:11 437.405
ZACube-1 29 Nov 09:21:19 09:22:40 11° 87° (E) 09:24:02 437.345
DELFI C3 29 Nov 09:27:35 09:30:55 23° 93° (E) 09:34:14 145.870
SEEDS 29 Nov 09:31:23 09:35:40 71° 102° (ESE) 09:39:56 437.485
TIGRISAT 29 Nov 09:31:27 09:35:26 42° 69° (ENE) 09:39:29 435.000
AAUSAT CUBESAT 2 29 Nov 09:40:39 09:44:54 68° 102° (ESE) 09:49:07 437.432
DOVE 4 29 Nov 09:41:50 09:45:58 55° 101° (E) 09:50:12 437.250
UKube-1 29 Nov 09:44:24 09:48:20 32° 97° (E) 09:52:14 .
UNISAT 6 29 Nov 09:46:59 09:51:11 60° 72° (ENE) 09:55:26 437.425
CINEMA 3 29 Nov 09:50:16 09:54:20 42° 99° (E) 09:58:29 145.822/145.860
BRITE-PL 29 Nov 09:50:39 09:54:47 69° 287° (WNW) 09:58:59 437.365/2234.400
POLYITAN 1 29 Nov 09:51:28 09:55:33 48° 70° (ENE) 09:59:39 437.675
QB50P2 29 Nov 09:51:56 09:56:02 49° 70° (ENE) 10:00:08 145.880/145.840
Oscar 11 29 Nov 09:52:40 09:56:54 47° 99° (E) 10:01:07 145.826/435.025
FUNcube-1 29 Nov 09:53:38 09:57:04 23° 93° (E) 10:00:33 145.935
DUCHIFAT 1 29 Nov 09:55:26 09:59:33 52° 71° (ENE) 10:03:41 145.980
COMPASS 1 29 Nov 09:58:38 10:02:53 73° 286° (WNW) 10:07:08 437.405
AISAT 29 Nov 10:02:54 10:06:05 19° 91° (E) 10:09:15 437.250
CANX-2 29 Nov 10:04:57 10:09:03 45° 290° (WNW) 10:13:09 2200.000
HUMSAT D 29 Nov 10:10:58 10:14:15 22° 93° (E) 10:17:32 437.325/437.525
NANOSAT C BR1 29 Nov 10:15:22 10:19:37 82° 74° (ENE) 10:23:52 145.865
ANTELSAT 29 Nov 10:16:11 10:20:26 71° 257° (WSW) 10:24:45 437.575/2403.000
BUGSAT 1 29 Nov 10:16:41 10:20:54 72° 73° (ENE) 10:25:06 437.445
GONETS M04 29 Nov 10:17:12 10:24:40 30° 300° (WNW) 10:32:13
SO-50 29 Nov 10:22:33 10:27:09 41° 40° (NE) 10:31:47 436.795
DX 1 29 Nov 10:23:33 10:27:56 80° 104° (ESE) 10:32:16 434.975-435.025
QB50P1 29 Nov 10:25:49 10:30:05 79° 256° (WSW) 10:34:21 145.935-145.965
UWE-3 29 Nov 10:28:46 10:32:59 59° 101° (E) 10:37:17 435.000/436.395/437.385
CUBEBUG 2 29 Nov 10:36:25 10:40:42 81° 104° (ESE) 10:45:04 437.445
YUBILEINY 29 Nov 10:37:25 10:40:46 12° 41° (NE) 10:44:05 435.215
CUTE 1.7 + AOD 2 29 Nov 10:39:34 10:43:03 24° 296° (WNW) 10:46:31 437.475
GOMX 1 29 Nov 10:41:33 10:45:13 30° 293° (WNW) 10:48:56 467.674
POPSAT HIP 1 29 Nov 10:51:28 10:55:32 44° 261° (W) 10:59:36 437.405
ZACube-1 29 Nov 10:55:24 10:59:40 87° 285° (WNW) 11:04:00 437.345
HO-68 29 Nov 10:59:22 11:05:53 39° 302° (WNW) 11:12:21 435.675
DELFI C3 29 Nov 11:02:29 11:06:23 40° 291° (WNW) 11:10:15 145.870
Oscar 19 29 Nov 11:06:01 11:08:31 14° 52° (NE) 11:11:01 437.125/150
SEEDS 29 Nov 11:08:25 11:11:01 16° 301° (WNW) 11:13:36 437.485
TIGRISAT 29 Nov 11:09:02 11:12:24 23° 267° (W) 11:15:48 435.000
50 SAT 29 Nov 11:09:04 11:13:09 70° 102° (ESE) 11:17:13 437.505
VELOX 1 29 Nov 11:09:57 11:14:24 80° 104° (ESE) 11:18:49 145.980
AAUSAT CUBESAT 2 29 Nov 11:17:28 11:20:07 16° 300° (WNW) 11:22:45 437.432
DOVE 4 29 Nov 11:20:33 11:23:26 19° 299° (WNW) 11:26:23 437.250
UKube-1 29 Nov 11:20:39 11:24:29 31° 295° (WNW) 11:28:18 .
ESTCUBE 1 29 Nov 11:22:08 11:26:31 45° 99° (E) 11:30:52 437.505/2401.250
UNISAT 6 29 Nov 11:25:45 11:28:25 16° 270° (W) 11:31:07 437.425
CINEMA 3 29 Nov 11:28:01 11:31:22 23° 296° (WNW) 11:34:48 145.822/145.860
POLYITAN 1 29 Nov 11:28:38 11:31:46 20° 268° (W) 11:34:55 437.675
QB50P2 29 Nov 11:29:07 11:32:14 20° 268° (W) 11:35:22 145.880/145.840
Oscar 11 29 Nov 11:29:25 11:32:49 23° 298° (WNW) 11:36:12 145.826/435.025
FUNcube-1 29 Nov 11:29:36 11:33:36 41° 291° (WNW) 11:37:39 145.935
DUCHIFAT 1 29 Nov 11:32:44 11:35:44 19° 269° (W) 11:38:45 145.980
COMPASS 1 29 Nov 11:36:57 11:37:51 11° 305° (NW) 11:38:46 437.405
CUBEBUG 1 29 Nov 11:37:15 11:41:35 61° 101° (ESE) 11:45:52 437.445
AISAT 29 Nov 11:38:44 11:43:04 54° 290° (WNW) 11:47:22 437.250
HUMSAT D 29 Nov 11:46:18 11:50:16 43° 291° (WNW) 11:54:15 437.325/437.525
NANOSAT C BR1 29 Nov 11:54:29 11:56:06 12° 273° (W) 11:57:42 145.865
BUGSAT 1 29 Nov 11:54:45 11:56:54 14° 271° (W) 11:59:03 437.445
DX 1 29 Nov 12:01:10 12:03:37 15° 303° (WNW) 12:06:04 434.975-435.025
SO-50 29 Nov 12:03:11 12:07:46 41° 239° (WSW) 12:12:21 436.795
UWE-3 29 Nov 12:06:17 12:09:11 18° 299° (WNW) 12:12:07 435.000/436.395/437.385
ITAMSAT 1 29 Nov 12:06:19 12:09:53 19° 56° (NE) 12:13:26 435.822/435.867
CUBEBUG 2 29 Nov 12:14:39 12:16:53 14° 302° (WNW) 12:19:09 437.445
TISAT 1 29 Nov 12:23:50 12:27:57 50° 100° (E) 12:32:02 437.305
AO-7 29 Nov 12:23:59 12:27:57 15° 30° (NNE) 12:31:55 29.400- 29.500
BEESAT 29 Nov 12:26:11 12:26:40 10° 85° (E) 12:27:09 436.000
YUBILEINY 29 Nov 12:32:10 12:40:30 46° 69° (ENE) 12:48:43 435.215
ZACube-1 29 Nov 12:33:39 12:35:25 12° 303° (WNW) 12:37:12 437.345
Oscar 19 29 Nov 12:41:54 12:47:00 72° 72° (ENE) 12:52:08 437.125/150
50 SAT 29 Nov 12:45:39 12:47:59 15° 301° (WNW) 12:50:19 437.505
SPROUT 29 Nov 12:45:41 12:50:00 76° 103° (ESE) 12:54:16 437.525
VELOX 1 29 Nov 12:47:53 12:50:26 15° 303° (WNW) 12:52:58 145.980
HO-68 29 Nov 12:49:40 12:51:40 11° 325° (NW) 12:53:40 435.675
CUSAT 1 29 Nov 12:57:05 12:59:40 86° 101° (E) 13:02:28 437.405
ESTCUBE 1 29 Nov 12:59:29 13:03:11 25° 298° (WNW) 13:06:51 437.505/2401.250
Gurwin Techsat 1B 29 Nov 12:59:43 13:04:16 30° 62° (ENE) 13:08:49 435.225
O/OREOS (USA 219) 29 Nov 13:03:31 13:05:46 14° 39° (NE) 13:08:00 437.305
CUBEBUG 1 29 Nov 13:14:32 13:17:34 19° 300° (WNW) 13:20:34 437.445
ITUPSAT 1 29 Nov 13:21:13 13:25:33 32° 96° (E) 13:29:51 437.325
SWISSCUBE 29 Nov 13:30:27 13:35:03 42° 98° (E) 13:39:35 437.505
VERMONT LUNAR 29 Nov 13:33:47 13:35:14 12° 160° (SSE) 13:36:42 437.305
AUBIESAT-1 29 Nov 13:36:29 13:41:08 40° 102° (ESE) 13:45:37 437.475
PHONESAT 2.4 29 Nov 13:39:29 13:40:24 11° 157° (SSE) 13:41:20 2401.200-2431.200
DANDE 29 Nov 13:40:52 13:43:07 26° 289° (WNW) 13:45:30 436.750
ITAMSAT 1 29 Nov 13:43:32 13:48:46 82° 255° (WSW) 13:54:01 435.822/435.867
M-CUBED/EXP-1 PRIME 29 Nov 13:44:26 13:49:16 50° 105° (ESE) 13:53:57 437.505
JAS-2 29 Nov 13:45:26 13:47:39 11° 38° (NE) 13:49:51 435.910
HORYU 2 29 Nov 13:46:27 13:50:18 30° 64° (ENE) 13:54:11 437.375
TISAT 1 29 Nov 14:00:23 14:03:29 20° 299° (WNW) 14:06:35 437.305
BEESAT 29 Nov 14:00:33 14:05:23 74° 103° (ESE) 14:10:09 436.000
AO-7 29 Nov 14:11:00 14:18:34 42° 55° (NE) 14:26:12 29.400- 29.500
STARS 29 Nov 14:12:39 14:15:32 17° 90° (E) 14:18:25 437.465
SPROUT 29 Nov 14:23:07 14:25:33 15° 302° (WNW) 14:28:00 437.525
Oscar 19 29 Nov 14:23:27 14:26:54 18° 271° (W) 14:30:22 437.125/150
MaSat-1 29 Nov 14:28:01 14:30:35 34° 116° (ESE) 14:32:59 437.345
YUBILEINY 29 Nov 14:29:10 14:37:25 50° 272° (W) 14:45:37 435.215
Gurwin Techsat 1B 29 Nov 14:38:54 14:44:02 49° 261° (W) 14:49:12 435.225
RS-15 29 Nov 14:39:49 14:48:47 31° 105° (ESE) 14:57:43 29.354- 29.394
O/OREOS (USA 219) 29 Nov 14:41:35 14:46:03 68° 61° (ENE) 14:50:31 437.305
ITUPSAT 1 29 Nov 14:59:05 15:03:29 37° 295° (WNW) 15:07:52 437.325
KKS-1 29 Nov 15:00:37 15:05:04 68° 103° (ESE) 15:09:29 437.445
SWISSCUBE 29 Nov 15:08:39 15:12:45 29° 297° (WNW) 15:16:50 437.505
VERMONT LUNAR 29 Nov 15:10:15 15:12:54 19° 177° (S) 15:15:34 437.305
AUBIESAT-1 29 Nov 15:11:35 15:16:01 35° 301° (WNW) 15:20:22 437.475
PHONESAT 2.4 29 Nov 15:15:37 15:18:20 19° 174° (S) 15:21:03 2401.200-2431.200
M-CUBED/EXP-1 PRIME 29 Nov 15:19:50 15:24:03 29° 303° (WNW) 15:28:12 437.505
HORYU 2 29 Nov 15:22:51 15:26:55 35° 263° (W) 15:31:02 437.375
JAS-2 29 Nov 15:23:38 15:30:39 38° 60° (ENE) 15:37:34 435.910
ITAMSAT 1 29 Nov 15:26:47 15:29:06 13° 274° (W) 15:31:25 435.822/435.867
BEESAT 29 Nov 15:39:27 15:42:42 18° 303° (WNW) 15:45:57 436.000
STARS 29 Nov 15:48:05 15:52:26 61° 289° (WNW) 15:56:46 437.465
CUTE-I 29 Nov 15:56:46 15:59:55 16° 53° (NE) 16:03:03 437.470
AO-7 29 Nov 16:02:57 16:11:07 60° 257° (WSW) 16:19:22 29.400- 29.500
MaSat-1 29 Nov 16:03:38 16:05:06 14° 313° (NW) 16:06:30 437.345
O/OREOS (USA 219) 29 Nov 16:22:12 16:24:56 16° 260° (W) 16:27:39 437.305
GONETS M04 29 Nov 16:27:44 16:32:01 14° 43° (NE) 16:36:16
YUBILEINY 29 Nov 16:31:27 16:31:54 10° 295° (WNW) 16:32:21 435.215
MOZHAYETS 4 29 Nov 16:34:01 16:37:48 24° 92° (E) 16:41:33
KKS-1 29 Nov 16:38:19 16:41:15 18° 301° (WNW) 16:44:11 437.445
VERMONT LUNAR 29 Nov 16:48:24 16:50:37 16° 194° (SSW) 16:52:51 437.305
RS-15 29 Nov 16:48:52 16:59:50 87° 310° (NW) 17:10:56 29.354- 29.394
PHONESAT 2.4 29 Nov 16:53:52 16:56:24 18° 191° (S) 16:58:56 2401.200-2431.200
Cubesat XI-IV 29 Nov 16:54:05 16:59:04 41° 65° (ENE) 17:04:04 437.490
JAS-2 29 Nov 17:07:33 17:15:17 64° 260° (W) 17:23:02 435.910
CUTE-I 29 Nov 17:33:51 17:39:12 80° 73° (ENE) 17:44:35 437.470
PRISM 29 Nov 17:54:10 17:57:46 26° 95° (E) 18:01:20 437.425
HO-68 29 Nov 18:00:12 18:04:41 18° 44° (NE) 18:09:10 435.675
AO-7 29 Nov 18:02:19 18:05:46 13° 278° (W) 18:09:15 29.400- 29.500
MOZHAYETS 4 29 Nov 18:10:47 18:15:16 47° 291° (WNW) 18:19:43
GONETS M04 29 Nov 18:22:58 18:31:33 51° 70° (ENE) 18:40:01
CUBESAT XI-V 29 Nov 18:26:57 18:30:52 26° 93° (E) 18:34:45 437.345
Cubesat XI-IV 29 Nov 18:34:22 18:39:14 35° 264° (W) 18:44:07 437.490
PCSat 29 Nov 18:46:00 18:50:56 37° 114° (ESE) 18:55:54 145.827
SEEDS 29 Nov 18:55:19 18:57:01 12° 56° (ENE) 18:58:44 437.485
JAS-2 29 Nov 18:57:37 19:01:45 15° 280° (W) 19:05:53 435.910
STRAND 1 29 Nov 18:57:59 19:02:54 45° 99° (E) 19:07:45 437.568
RS-15 29 Nov 19:03:30 19:13:44 43° 339° (NNW) 19:24:12 29.354- 29.394
AAUSAT CUBESAT 2 29 Nov 19:04:01 19:05:23 11° 56° (NE) 19:06:46 437.432
AIST 2 29 Nov 19:13:36 19:16:20 17° 112° (ESE) 19:19:06 435.215
CUTE-I 29 Nov 19:16:29 19:19:55 17° 272° (W) 19:23:22 437.470
AIST 1 29 Nov 19:16:50 19:21:08 54° 95° (E) 19:25:28
DOVE 4 29 Nov 19:17:14 19:19:17 13° 58° (ENE) 19:21:17 437.250
COMPASS 1 29 Nov 19:20:35 19:23:24 18° 60° (ENE) 19:26:14 437.405
CANX-2 29 Nov 19:27:04 19:30:39 28° 65° (ENE) 19:34:17 2200.000
BRITE-PL 29 Nov 19:28:11 19:32:11 29° 66° (ENE) 19:35:59 437.365/2234.400
PRISM 29 Nov 19:29:30 19:33:25 36° 293° (WNW) 19:37:17 437.425
BEESAT 3 29 Nov 19:38:01 19:42:02 53° 124° (ESE) 19:46:07 437.485
HO-68 29 Nov 19:44:02 19:51:07 64° 66° (ENE) 19:58:13 435.675
DX 1 29 Nov 19:49:09 19:52:01 17° 59° (ENE) 19:54:53 434.975-435.025
BEESAT 2 29 Nov 19:56:52 20:00:59 72° 127° (SE) 20:05:11 435.950
UWE-3 29 Nov 19:57:30 19:58:53 11° 56° (NE) 20:00:15 435.000/436.395/437.385
CUTE 1.7 + AOD 2 29 Nov 20:00:30 20:04:37 53° 71° (ENE) 20:08:46 437.475
CUBESAT XI-V 29 Nov 20:04:04 20:08:29 43° 292° (WNW) 20:12:52 437.345
CUBEBUG 2 29 Nov 20:04:57 20:07:22 15° 59° (ENE) 20:09:46 437.445
GOMX 1 29 Nov 20:15:48 20:20:15 56° 72° (ENE) 20:24:29 467.674
GONETS M04 29 Nov 20:20:07 20:28:19 45° 273° (W) 20:36:28
DELFI C3 29 Nov 20:20:46 20:24:12 27° 65° (ENE) 20:27:41 145.870
ZACube-1 29 Nov 20:21:37 20:24:16 17° 60° (ENE) 20:26:54 437.345
SEEDS 29 Nov 20:27:59 20:32:12 87° 75° (ENE) 20:36:27 437.485
PCSat 29 Nov 20:29:04 20:34:17 46° 315° (NW) 20:39:32 145.827
50 SAT 29 Nov 20:30:34 20:31:31 11° 56° (NE) 20:32:27 437.505
AAUSAT CUBESAT 2 29 Nov 20:36:12 20:40:22 81° 75° (ENE) 20:44:35 437.432
VELOX 1 29 Nov 20:37:25 20:40:25 18° 59° (ENE) 20:43:26 145.980
STRAND 1 29 Nov 20:37:31 20:41:56 30° 298° (WNW) 20:46:20 437.568
UKube-1 29 Nov 20:43:39 20:47:51 50° 69° (ENE) 20:52:05 .
AIST 2 29 Nov 20:50:13 20:54:28 74° 311° (NW) 20:58:48 435.215
Oscar 11 29 Nov 20:51:40 20:55:55 64° 72° (ENE) 21:00:13 145.826/435.025
DOVE 4 29 Nov 20:52:05 20:56:32 86° 256° (WSW) 21:00:48 437.250
ESTCUBE 1 29 Nov 20:52:56 20:54:31 12° 54° (NE) 20:56:06 437.505/2401.250
FUNcube-1 29 Nov 20:54:10 20:57:51 31° 67° (ENE) 21:01:33 145.935
COMPASS 1 29 Nov 20:54:37 20:58:45 59° 259° (W) 21:02:55 437.405
AIST 1 29 Nov 20:56:00 20:59:10 19° 294° (WNW) 21:02:21
CINEMA 3 29 Nov 20:56:40 21:00:55 67° 73° (ENE) 21:05:04 145.822/145.860
CANX-2 29 Nov 21:02:38 21:06:31 35° 264° (W) 21:10:26 2200.000
CUBEBUG 1 29 Nov 21:04:16 21:06:25 13° 56° (NE) 21:08:33 437.445
AISAT 29 Nov 21:05:13 21:09:08 31° 65° (ENE) 21:13:03 437.250
BRITE-PL 29 Nov 21:06:12 21:10:39 38° 262° (W) 21:14:49 437.365/2234.400
HUMSAT D 29 Nov 21:07:45 21:11:15 28° 65° (ENE) 21:14:46 437.325/437.525
BEESAT 3 29 Nov 21:16:54 21:20:31 28° 324° (NW) 21:24:10 437.485
RS-15 29 Nov 21:19:19 21:29:27 39° 13° (NNE) 21:39:53 29.354- 29.394
DX 1 29 Nov 21:23:27 21:27:48 68° 257° (WSW) 21:32:11 434.975-435.025
UWE-3 29 Nov 21:30:35 21:34:46 84° 75° (ENE) 21:38:57 435.000/436.395/437.385
HO-68 29 Nov 21:33:02 21:39:17 31° 266° (W) 21:45:35 435.675
BEESAT 2 29 Nov 21:36:19 21:39:43 23° 327° (NNW) 21:43:09 435.950
CUTE 1.7 + AOD 2 29 Nov 21:37:57 21:40:53 18° 270° (W) 21:43:50 437.475
CUBEBUG 2 29 Nov 21:39:25 21:43:36 70° 258° (WSW) 21:47:47 437.445
CUSAT 1 29 Nov 21:46:58 21:49:57 16° 65° (ENE) 21:53:24 437.405
TISAT 1 29 Nov 21:49:22 21:49:47 10° 54° (NE) 21:50:11 437.305
GOMX 1 29 Nov 21:55:35 21:58:43 18° 269° (W) 22:01:45 467.674
DELFI C3 29 Nov 21:55:42 21:59:25 34° 264° (W) 22:03:11 145.870
ZACube-1 29 Nov 21:56:05 22:00:14 63° 258° (WSW) 22:04:22 437.345
50 SAT 29 Nov 22:02:07 22:06:08 81° 75° (ENE) 22:10:11 437.505
ANTELSAT 29 Nov 22:04:41 22:07:49 18° 91° (E) 22:10:59 437.575/2403.000
SEEDS 29 Nov 22:07:30 22:08:41 11° 274° (W) 22:09:52 437.485
QB50P1 29 Nov 22:08:47 22:10:43 13° 88° (E) 22:12:39 145.935-145.965
SPROUT 29 Nov 22:10:36 22:12:56 15° 58° (ENE) 22:15:17 437.525
VELOX 1 29 Nov 22:12:07 22:16:34 67° 258° (WSW) 22:21:02 145.980
AAUSAT CUBESAT 2 29 Nov 22:15:08 22:16:39 12° 273° (W) 22:18:11 437.432
PCSat 29 Nov 22:15:38 22:19:05 17° 338° (NNW) 22:22:33 145.827
UKube-1 29 Nov 22:21:03 22:24:18 20° 268° (W) 22:27:35 .
ESTCUBE 1 29 Nov 22:26:03 22:30:35 71° 73° (ENE) 22:35:09 437.505/2401.250
MaSat-1 29 Nov 22:27:44 22:29:11 15° 48° (NE) 22:30:39 437.345
Oscar 11 29 Nov 22:29:55 22:32:33 16° 271° (W) 22:35:11 145.826/435.025
FUNcube-1 29 Nov 22:30:36 22:34:15 29° 265° (W) 22:37:53 145.935
AIST 2 29 Nov 22:30:44 22:33:50 19° 333° (NNW) 22:36:58 435.215
DANDE 29 Nov 22:31:12 22:35:13 29° 71° (ENE) 22:40:20 436.750
POPSAT HIP 1 29 Nov 22:33:07 22:36:27 22° 93° (E) 22:39:45 437.405
DOVE 4 29 Nov 22:34:29 22:34:57 10° 273° (W) 22:35:26 437.250
CINEMA 3 29 Nov 22:36:19 22:38:36 14° 271° (W) 22:40:52 145.822/145.860
